Probability
0 0 0 0 0 0 0 0 0 0 0 0 0 0 0 0 0 0 0 0 0 0 0 0 0 0 0 0 0 0 0 0 0 0 0 0 0 0 0 0 0 0 0
0 0 0 0 0 0 0 0 0 0 0 0 0 0 0 0 0 0 0 0 0 0 0 0 0 0 0 0 0 0 0 0 0 0 0 0 0 0 0 0 0 0 0
0 0 0 0 0 0 0 0 0 0 0 0 0 0 0 0 0 0 0 0 0 0 0 0 0 0 0 0 0 0 0 0 0 0 0 0 0 0 0 0 0 0 0
0 0 0 0 0 0 0 0 0 0 0 0 0 0 0 0 0 0 0 0 0 0 0 0 0 0 0 0 0 0 0 0 0 0 0 0 0 0 0 0 0 0 0
0 0 0 0 0 0 0 0 0 0 0 0 0 0 0 0 0 0 0 0 0 0 0 0 0 0 0 0 0 0 0 0 0 0 0 0 0 0 0 0 0 0 0
0 0 0 0 0 0 0 0 0 0 0 0 0 0 0 0 0 0 0 0 0 0 0 0 0 0 0 0 0 0 0 0 0 0 0 0 0 0 0 0 0 0 0
0 0 0 0 0 0 0 0 0 0 0 0 0 0 0 0 0 0 0 0 0 0 0 0 0 0 0 0 0 0 0 0 0 0 0 0 0 0 0 0 0 0 0
0 0 0 0 0 0 0 0 0 0 0 0 0 0 0 0 0 0 0 0 0 0 0 0 0 0 0 0 0 0 0 0 0 0 0 0 0 0 0 0 0 0 0
0 0 0 0 0 0 0 0 0 0 0 0 0 0 0 0 0 0 0 0 0 0 0 0 0 0 0 0 0 0 0 0 0 0 0 0 0 0 0 0 0 0 0
0 0 0 0 0 0 0 0 0 0 0 0 0 0 0 0 0 0 0 0 0 0 0 0 0 0 0 0 0 0 0 0 0 0 0 0 0 0 0 0 0 0 0
0 0 0 0 0 0 0 0 0 0 0 0 0 0 0 0 0 0 0 0 0 0 0 0 0 0 0 0 0 0 0 0 0 0 0 0 0 0 0 0 0 0 0
0 0 0 0 0 0 0 0 0 0 0 0 0 0 0 0 0 0 0 0 0 0 0 0 0 0 0 0 0 0 0 0 0 0 0 0 0 0 0 0 0 0 0
0 0 0 0 0 0 0 0 0 0 0 0 0 0 0 0 0 0 0 0 0 0 0 0 0 0 0 0 0 0 0 0 0 0 0 0 0 0 0 0 0 0 0
0 0 0 0 0 0 0 0 0 0 0 0 0 0 0 0 0 0 0 0 0 0 0 0 0 0 0 0 0 0 0 0 0 0 0 0 0 0 0 0 0 0 0
0 0 0 0 0 0 0 0 0 0 0 0 0 0 0 0 0 0 0 0 0 0 0 0 0 0 0 0 0 0 0 0 0 0 0 0 0 0 0 0 0 0 0
0 0 0 0 0 0 0 0 0 0 0 0 0 0 0 0 0 0 0 0 0 0 0 0 0 0 0 0 0 0 0 0 0 0 0 0 0 0 0 0 0 0 0
0 0 0 0 0 0 0 0 0 0 0 0 0 0 0 0 0 0 0 0 0 0 0 0 0 0 0 0 0 0 0 0 0 0 0 0 0 0 0 0 0 0 0
0 0 0 0 0 0 0 0 0 0 0 0 0 0 0 0 0 0 0 0 0 0 0 0 0 0 0 0 0 0 0 0 0 0 0 0 0 0 0 0 0 0 0
0 0 0 0 0 0 0 0 0 0 0 0 0 0 0 0 0 0 0 0 0 0 0 0 0 0 0 0 0 0 0 0 0 0 0 0 0 0 0 0 0 0 0
0 0 1 1 1 0 0 0 0 0 0 0 0 0 0 0 0 0 0 0 0 0 0 0 0 0 0 0 0 0 0 0 0 0 0 0 0 0 0 0 0 0 0
0 0 1 1 1 0 0 0 0 0 0 0 0 0 0 0 0 0 0 0 0 0 0 0 0 0 0 0 0 0 0 0 0 0 0 0 0 0 0 0 0 0 0
0 0 0 0 0 0 0 0 0 0 0 0 0 0 0 0 0 0 0 0 0 0 0 0 0 0 0 0 0 0 0 0 0 0 0 0 0 0 0 0 0 0 0
0 0 0 0 0 0 0 0 0 0 0 0 0 0 0 0 0 0 0 0 0 0 0 0 0 0 0 0 0 0 0 0 0 0 0 0 0 0 0 0 0 0 0
0 0 0 0 1 1 1 0 0 0 0 0 0 0 0 0 0 0 0 0 0 0 0 0 0 0 0 0 0 0 0 0 0 0 0 0 0 0 0 0 0 0 0
0 0 0 0 1 2 2 1 1 0 0 0 0 0 0 0 0 0 0 0 0 0 0 0 0 0 0 0 0 0 0 0 0 0 0 0 0 0 0 0 0 0 0
0 0 0 0 0 1 2 2 2 1 0 0 0 0 0 0 0 0 0 0 0 0 0 0 0 0 0 0 0 0 0 0 0 0 0 0 0 0 0 0 0 0 0
Wind_Speed
10 11 11 11 11 11 12 12 12 12 13 13 14 14 14 15 16 16 17 17 17 17 18 18 19 19 20 20 20 19 19 19 19 20 20 20 20 20 19 18 16 13 19
14 13 11 11 12 12 12 12 12 12 13 13 13 14 14 15 16 16 16 16 16 17 17 18 18 18 18 18 18 17 16 15 15 16 17 16 18 19 20 19 17 13 19
15 13 11 11 12 12 11 11 12 12 13 13 13 13 14 14 15 15 16 16 16 16 17 17 18 18 17 17 16 15 14 13 11 13 13 9 12 19 19 19 18 19 18
14 12 11 11 12 12 11 11 12 12 12 13 13 13 13 14 15 15 15 15 16 16 16 16 17 17 16 16 14 14 14 13 13 13 9 9 9 17 19 19 18 18 18
12 11 12 11 12 12 11 11 11 11 12 12 13 13 13 14 14 14 15 15 15 15 15 16 16 16 15 14 13 13 13 12 13 13 9 9 8 16 18 18 18 17 17
12 12 12 12 12 12 11 11 11 11 11 12 12 12 13 13 13 14 14 14 14 15 15 15 15 15 14 13 13 13 13 13 12 9 9 8 7 15 16 16 16 16 16
12 12 11 11 11 11 10 11 11 11 11 11 12 12 12 12 12 13 13 13 13 14 14 14 14 14 13 13 12 12 13 11 10 8 8 7 8 15 15 15 15 15 15
12 12 10 10 10 10 9 9 10 10 10 11 11 11 11 11 11 11 12 12 12 13 13 13 13 13 12 12 11 11 12 10 10 9 7 6 10 13 14 14 14 13 13
11 11 9 8 8 9 9 8 9 9 9 10 11 11 10 10 10 10 10 11 11 11 12 12 12 11 11 10 9 9 10 10 7 5 8 5 9 12 12 12 12 12 12
10 10 9 8 8 7 7 8 9 9 10 10 10 10 9 9 9 8 8 9 10 10 11 11 11 10 10 8 7 7 8 6 6 6 4 5 9 10 10 10 10 10 10
8 8 8 8 8 8 7 8 8 9 9 10 8 9 8 5 5 5 8 9 9 10 10 10 9 8 7 5 4 5 6 3 5 5 4 5 7 8 8 8 8 8 8
8 7 7 8 7 7 7 7 5 5 6 5 5 5 3 3 4 7 9 9 9 9 9 8 6 3 2 2 0 2 2 3 3 4 3 6 6 6 6 6 6 6 6
8 6 6 7 7 6 5 5 4 4 4 5 7 5 3 4 4 5 3 4 4 5 4 4 3 1 0 1 0 1 2 2 2 3 3 4 4 4 4 4 4 4 4
9 9 6 6 6 6 6 4 4 4 3 3 5 6 4 3 3 3 3 4 3 2 3 2 1 1 1 1 1 2 2 2 2 2 3 3 2 2 2 3 3 3 3
10 10 9 7 7 6 5 4 4 4 4 4 4 5 5 4 3 3 3 3 3 3 3 2 2 2 1 0 0 1 1 1 1 1 2 3 2 2 3 3 4 4 4
10 10 10 9 8 7 5 4 4 4 4 4 5 5 5 4 4 4 3 3 3 3 3 2 3 3 2 1 1 1 1 1 1 1 1 3 5 5 6 6 6 6 6
9 10 11 10 9 8 7 6 4 4 4 4 4 6 6 5 5 4 4 4 3 3 3 2 2 2 2 2 2 3 2 2 2 2 2 2 3 6 8 9 9 9 9
9 10 11 10 10 10 8 7 5 4 5 4 4 5 6 6 5 5 4 4 4 3 3 3 3 2 2 2 2 3 3 3 4 4 3 3 3 3 7 11 11 11 11
9 10 11 11 11 10 9 7 6 5 5 5 4 5 6 7 6 5 4 4 5 4 3 3 3 3 3 3 3 2 3 3 4 4 5 5 4 4 3 7 10 11 13
7 9 10 11 11 10 8 6 5 6 5 5 5 6 7 7 7 6 4 5 5 4 4 4 4 3 2 2 2 2 3 4 4 5 5 5 5 5 5 4 4 7 13
6 7 9 10 11 9 8 8 8 8 6 6 6 7 8 8 8 7 5 5 5 5 5 5 4 4 3 2 1 2 4 6 7 6 5 4 5 5 5 6 4 4 5
6 7 7 9 10 10 9 8 7 6 6 7 6 8 9 9 8 7 7 6 6 5 5 6 5 3 3 3 3 2 3 4 5 7 5 6 6 4 6 6 6 6 5
5 6 6 7 8 10 9 6 5 5 5 6 7 7 8 9 9 9 9 7 7 7 6 7 7 7 5 4 4 4 3 4 3 2 4 5 5 5 5 5 7 7 7
4 3 4 5 6 7 9 8 9 8 8 7 6 6 8 9 9 9 9 9 8 7 7 7 7 6 5 4 4 4 4 1 2 4 3 3 5 6 6 6 6 7 8
2 1 2 3 4 5 7 9 9 8 6 4 5 7 7 7 8 9 8 8 8 7 7 7 7 7 6 6 5 3 4 3 4 4 6 4 3 5 6 6 6 7 7
2 1 1 1 2 3 4 6 8 8 7 5 5 5 5 4 5 7 7 7 7 6 7 8 7 8 8 7 6 5 5 4 5 6 8 6 5 4 5 5 7 7 7
Wind_Direction
117 121 125 122 116 108 103 97 93 90 88 85 82 79 77 76 75 74 73 72 70 70 71 71 71 71 71 70 69 70 72 73 73 72 69 68 68 68 67 66 66 63 67
120 124 126 123 117 112 107 102 96 95 92 89 86 83 80 78 77 76 75 74 73 73 73 74 73 73 73 73 71 70 71 72 75 77 71 66 68 70 69 67 69 70 69
119 126 126 121 119 115 111 107 100 99 96 93 91 88 84 81 80 79 77 76 76 75 75 75 74 73 73 72 70 66 62 56 59 74 71 65 66 70 70 68 68 69 69
124 133 126 124 122 118 114 111 104 102 100 97 95 92 87 84 82 81 79 77 77 76 76 75 76 75 74 72 67 61 52 43 51 71 66 62 63 70 69 67 66 66 67
125 123 123 127 126 121 117 114 108 105 105 101 99 95 90 86 83 82 81 79 78 77 77 77 77 76 74 71 65 54 40 36 55 66 67 63 61 71 70 69 67 65 65
122 120 129 129 128 124 120 118 114 109 108 106 102 98 93 89 86 84 83 82 80 79 79 78 78 76 74 69 61 48 38 44 63 63 61 61 62 73 73 72 70 69 68
122 124 133 129 129 127 125 122 119 114 112 109 107 103 98 94 93 90 87 86 84 83 82 81 79 77 74 67 57 44 35 43 72 67 63 58 64 72 73 73 72 70 70
123 125 132 126 128 128 125 123 121 118 116 114 112 109 103 99 97 94 92 91 88 87 85 83 81 80 75 67 54 39 30 33 75 77 70 59 70 74 74 73 73 72 71
124 128 136 137 131 126 123 120 120 118 116 116 113 108 101 96 95 89 90 94 93 92 90 88 86 83 77 68 54 34 24 22 69 73 76 60 72 75 77 76 76 75 74
130 138 146 150 146 141 129 123 121 119 117 115 113 111 106 102 100 97 92 94 97 98 96 93 90 86 81 71 50 25 7 12 72 74 72 69 73 77 80 80 79 78 77
141 147 149 153 152 151 146 137 128 125 124 123 120 129 137 140 128 109 96 97 98 99 97 94 94 94 93 82 45 5 348 41 72 77 68 74 80 82 83 84 83 82 80
156 157 153 154 152 152 147 146 152 147 149 154 146 163 185 131 111 108 101 101 101 102 102 100 104 124 157 141 138 318 354 43 75 92 83 78 87 93 94 93 91 90 89
168 163 159 157 153 149 139 156 157 154 163 164 157 174 153 117 118 120 121 121 124 136 125 133 155 220 356 78 138 34 26 25 58 93 97 86 86 103 110 109 112 108 108
175 173 172 164 157 155 152 162 155 152 160 162 161 168 151 144 151 151 153 163 164 165 147 164 155 113 19 25 29 38 26 11 48 93 121 112 99 129 151 155 158 157 153
180 173 176 173 169 165 163 166 163 163 166 164 161 171 165 160 165 161 157 156 169 156 159 171 157 156 192 220 350 1 341 345 7 86 140 166 182 219 223 216 209 208 205
180 175 174 179 176 172 176 175 169 168 167 164 164 175 181 171 168 165 164 168 177 165 166 170 170 167 191 189 227 247 276 282 263 258 183 187 207 223 237 236 232 229 226
180 174 174 180 180 180 184 185 178 173 168 174 171 179 183 184 174 169 170 175 181 167 158 159 176 167 191 194 226 230 236 261 266 254 245 215 211 221 231 238 242 240 239
177 177 176 177 183 188 188 188 184 182 177 180 174 180 187 190 185 176 175 179 177 164 164 175 185 186 205 209 225 228 221 233 248 249 248 242 232 221 226 234 241 245 245
180 177 176 177 183 189 189 188 189 184 185 182 182 186 191 193 192 185 184 181 171 169 178 184 189 187 202 215 224 234 234 231 235 236 239 241 238 236 230 235 235 242 247
182 178 178 179 183 184 186 188 191 193 192 189 190 195 192 194 194 192 189 184 172 173 186 188 193 198 202 201 221 252 254 246 239 235 234 236 236 236 236 240 235 238 241
184 185 183 182 184 183 187 191 195 200 197 198 198 196 197 195 194 195 191 188 181 188 194 190 184 200 212 158 142 284 270 242 237 237 230 233 236 232 233 236 236 235 240
188 194 193 191 188 188 192 193 196 196 199 202 201 201 200 199 196 196 197 194 190 193 197 193 184 183 194 168 172 214 291 296 252 236 227 229 235 233 235 235 238 239 241
189 198 203 203 199 194 190 185 185 196 200 199 201 202 202 199 197 195 199 197 193 194 204 203 193 189 199 197 194 190 215 252 295 280 235 231 231 233 240 239 239 241 241
189 201 215 214 210 201 190 190 190 198 207 205 195 197 196 198 199 199 199 200 198 198 206 207 201 201 194 200 208 227 232 211 245 296 288 252 237 237 240 241 242 243 240
122 180 225 233 224 209 197 194 196 206 207 200 193 192 192 193 197 199 198 200 202 202 206 205 199 202 205 208 198 195 218 228 222 244 275 280 266 243 238 238 240 241 239
78 74 200 228 239 219 201 196 197 202 202 203 202 192 186 180 189 196 196 199 203 204 207 209 207 206 210 216 213 199 194 201 209 222 252 264 269 260 237 233 236 240 239